FW2250 Weather Reports


Display with metric or nautical units.
time (UTC)temp
F
wind
direction
speed
MPH
gust
MPH
rain 1hr
in
rain 24hr
in
rain mn
in
humidity
%
barometer
mb
20260503060104 70 123 0.0 3.0 0.01 0.03 0.01 100 1020.0
20260503054602 69 123 0.0 2.0 0.00 0.02 0.00 100 1020.2
20260503053056 69 123 0.0 0.0 0.00 0.02 0.00 100 1020.3
20260503051553 70 123 0.0 0.0 0.00 0.02 0.00 100 1020.3
20260503050052 70 123 0.0 0.0 0.00 0.02 0.00 100 1020.5
20260503044554 71 123 0.0 0.0 0.00 0.02 0.00 100 1020.5
20260503043050 71 123 0.0 0.0 0.00 0.02 0.00 100 1020.6
20260503041545 71 123 0.0 1.0 0.00 0.02 0.00 100 1020.7
20260503040041 71 123 0.0 1.0 0.00 0.02 0.00 100 1020.8
20260503034539 71 123 0.0 0.0 0.00 0.02 0.02 100 1021.0
20260503033038 72 123 0.0 0.0 0.00 0.02 0.02 100 1020.9
20260503031537 72 123 0.0 0.0 0.00 0.02 0.02 100 1020.8
20260503030035 73 123 0.0 0.0 0.00 0.02 0.02 100 1020.7
20260503024535 73 123 0.0 0.0 0.00 0.05 0.02 100 1020.7
20260503023034 73 123 0.0 0.0 0.00 0.05 0.02 100 1020.6
20260503021534 74 123 0.0 1.0 0.00 0.05 0.02 100 1020.5
20260503020034 74 123 0.0 4.0 0.00 0.05 0.02 100 1020.4
20260503014531 75 123 0.0 0.0 0.00 0.09 0.02 100 1020.0
20260503013031 75 123 0.0 2.0 0.00 0.09 0.02 100 1019.8
20260503011536 75 123 0.0 0.0 0.00 0.09 0.02 100 1019.7
20260503010035 76 123 0.0 2.0 0.00 0.09 0.02 98 1019.5
20260503004529 76 123 0.0 4.0 0.00 0.12 0.02 99 1019.2
20260503003028 76 123 0.0 2.0 0.00 0.12 0.02 100 1019.0
20260503001528 75 123 0.0 1.0 0.00 0.12 0.02 100 1018.9
20260503000041 75 123 0.0 1.0 0.00 0.12 0.02 100 1018.8
20260502234526 76 123 0.0 2.0 0.00 0.20 0.02 100 1018.5
20260502233025 76 123 0.0 1.0 0.00 0.20 0.02 100 1018.3
20260502231532 76 123 0.0 1.0 0.00 0.20 0.02 100 1018.1
20260502230025 77 123 0.0 1.0 0.00 0.20 0.02 100 1018.1
20260502224526 78 123 0.0 0.0 0.00 0.00 0.02 98 1017.9
20260502223028 80 123 1.0 3.0 0.00 0.20 0.02 96 1017.7
20260502221523 80 123 0.0 4.0 0.00 0.20 0.02 96 1017.5
20260502220023 80 123 1.0 6.0 0.00 0.20 0.02 96 1017.6
20260502214522 80 123 1.0 7.0 0.00 0.20 0.02 96 1017.5
20260502213021 80 123 1.0 8.0 0.00 0.20 0.02 96 1017.3
20260502211529 81 123 2.0 8.0 0.00 0.20 0.02 96 1017.2
20260502210021 83 123 3.0 13.0 0.00 0.20 0.02 91 1017.1
20260502204522 89 123 5.0 13.0 0.01 0.20 0.02 80 1017.1
20260502203018 85 123 4.0 12.0 0.01 0.20 0.02 86 1017.1
20260502201518 83 123 3.0 10.0 0.01 0.20 0.02 89 1017.2
20260502200018 83 123 3.0 14.0 0.01 0.20 0.02 89 1017.3
20260502194517 82 123 3.0 10.0 0.01 0.19 0.01 89 1017.3
20260502193016 83 123 1.0 9.0 0.01 0.19 0.01 88 1017.4
20260502191515 83 123 0.0 9.0 0.01 0.19 0.01 88 1017.3
20260502190015 84 123 1.0 9.0 0.01 0.19 0.01 87 1017.4
20260502184515 86 123 1.0 10.0 0.00 0.18 0.00 82 1017.5
20260502183014 86 123 2.0 10.0 0.00 0.18 0.00 83 1017.5
20260502181512 88 123 4.0 13.0 0.00 0.18 0.00 79 1017.6
20260502163100 93 123 2.0 8.0 0.00 0.18 0.00 73 1018.9
20260502161659 89 123 3.0 11.0 0.00 0.18 0.00 78 1019.2
20260502151605 97 123 2.0 14.0 0.00 0.18 0.00 67 1019.8
20260502123015 86 123 3.0 6.0 0.00 0.18 0.00 76 1019.6
20260502121513 0 0.0 0.0 0.00 0.18 0.00 1019.4
20260502114502 0 0.0 0.0 0.00 0.18 0.00 1019.2
20260502113058 0 0.0 0.0 0.00 0.18 0.00 1019.0
20260502111553 0 0.0 0.0 0.00 0.18 0.00 1018.9
20260502110058 0 0.0 0.0 0.00 0.18 0.00 1018.7
20260502104544 0 0.0 0.0 0.00 0.18 0.00 1018.7
20260502103040 0 0.0 0.0 0.00 0.18 0.00 1018.5
20260502101535 0 0.0 0.0 0.00 0.18 0.00 1018.4
20260502091518 0 0.0 0.0 0.00 0.18 0.00 1017.7
20260502070110 70 123 0.0 2.0 0.00 0.18 0.00 100 1016.9
20260502064610 70 123 0.0 2.0 0.00 0.18 0.00 100 1017.0